Location: Veytaux
(46.4185°N, 6.9320°E)
Time: 07:18:28
(UTC+00:00)

Cosmos 1455 Rocket - Pass Details

Date: 27 May 2022
Orbit: 604 x 629 km, 82.5° (Epoch: 01 July)

Event Time Altitude Azimuth Distance (km) Brightness Sun altitude
Rises 00:34:20 0° 352° (N) 2,932 7.7 -20.7°
Reaches altitude 10° 00:36:36 10° 355° (N) 2,018 6.7 -20.6°
Maximum altitude 00:41:04 70° 80° (E) 671 3.2 -20.4°
Enters shadow 00:42:34 40° 151° (SSE) 924 3.6 -20.3°
